Current Conditions
Mostly Cloudy
Conditions



Pressure
1020.92 (mb) - 30.15 (inHG)
Visibility

6.2 (mimiles) - 10.0 (km)
   Temperature
17  °C
63°F
11  °C
Dewpoint
68  %
 Humidity
   Wind Speed
8  mph
7  kts
13  km/h
3.6  m/s
   Wind Direction
 260°
Due West
   Airport Data
EGGD
Location Bristol International 15 mi (24.14 km)
Metar :EGGD 101320Z AUTO 26007KT 230V290 9999 BKN022 17/11 Q1021
Tue 10th September 14:20 pm
   Raw Metar Info
Raw METAR is the most common format in the world for the transmission of observational weather data. It is highly standardized through the International Civil Aviation Organization (ICAO), which allows it to be understood throughout most of the world.
   API Info
Data Provided by
https://www.checkwx.com/weather/EGGD
   © Info
CSS/SVG/PHP scripts were developed by weather34.com for use in the weather34 template © 2015-2019

Guide Info provided by Metar-Wikipedia